Location: Newark
(49.3000°N, 9.4667°E)
Time: 02:40:52
(UTC+00:00)

Transit 4A - Pass Details

Date: 04 June 2019
Orbit: 862 x 983 km, 66.8° (Epoch: 15 June)

Event Time Altitude Azimuth Distance (km) Brightness Sun altitude
Rises 22:18:05 0° 309° (NW) 3,691 11.9 -16.9°
Reaches altitude 10° 22:22:59 10° 276° (W) 2,722 10.6 -17.1°
Maximum altitude 22:24:35 11° 262° (W) 2,638 10.3 -17.1°
Drops below altitude 10° 22:26:11 10° 247° (WSW) 2,703 10.2 -17.2°
Enters shadow 22:29:03 - 225° (SW) 3,142 10.3 -17.3°
